| time (UTC) | temp F | wind direction | speed MPH | gust MPH | rain 1hr in | rain 24hr in | rain mn in | humidity % | barometer mb |
| 20260902093039 | 67 | 188 | 0.0 | 2.0 | 0.00 | 0.93 | 0.90 | 97 | 1017.8 |
| 20260902091531 | 67 | 188 | 0.0 | 2.0 | 0.00 | 0.93 | 0.90 | 97 | 1017.7 |
| 20260902090034 | 67 | 0 | 0.0 | 2.0 | 0.00 | 0.93 | 0.90 | 97 | 1017.6 |
| 20260902084532 | 68 | 0 | 0.0 | 2.0 | 0.00 | 0.93 | 0.90 | 97 | 1017.7 |
| 20260902083031 | 68 | 0 | 0.0 | 0.0 | 0.00 | 0.93 | 0.90 | 96 | 1017.5 |
| 20260902081535 | 68 | 0 | 0.0 | 0.0 | 0.00 | 0.93 | 0.90 | 96 | 1017.4 |
| 20260902080034 | 68 | 0 | 0.0 | 2.0 | 0.00 | 0.93 | 0.90 | 96 | 1017.3 |
| 20260902074537 | 68 | 0 | 0.0 | 2.0 | 0.00 | 0.93 | 0.90 | 96 | 1017.4 |
| 20260902073035 | 69 | 0 | 0.0 | 2.0 | 0.00 | 0.93 | 0.90 | 95 | 1017.4 |
| 20260902071534 | 69 | 0 | 0.0 | 2.0 | 0.06 | 0.93 | 0.90 | 95 | 1017.3 |
| 20260902070034 | 69 | 0 | 0.0 | 3.0 | 0.25 | 0.93 | 0.90 | 93 | 1017.5 |
| 20260902064534 | 70 | 270 | 1.0 | 4.0 | 0.69 | 0.93 | 0.90 | 93 | 1017.7 |
| 20260902063034 | 70 | 0 | 0.0 | 2.0 | 0.89 | 0.93 | 0.90 | 93 | 1017.7 |
| 20260902060040 | 69 | 311 | 2.0 | 7.0 | 0.64 | 0.67 | 0.64 | 94 | 1018.1 |
| 20260902054532 | 70 | 332 | 4.0 | 8.0 | 0.18 | 0.21 | 0.18 | 95 | 1018.5 |
| 20260902053038 | 69 | 0 | 0.0 | 2.0 | 0.01 | 0.04 | 0.01 | 94 | 1017.7 |
| 20260902051532 | 69 | 0 | 0.0 | 3.0 | 0.00 | 0.03 | 0.00 | 94 | 1017.9 |
| 20260902050034 | 70 | 0 | 0.0 | 2.0 | 0.00 | 0.03 | 0.00 | 93 | 1017.9 |
| 20260902044538 | 70 | 0 | 0.0 | 1.0 | 0.00 | 0.03 | 0.00 | 93 | 1017.7 |
| 20260902043034 | 70 | 134 | 0.0 | 2.0 | 0.00 | 0.03 | 0.00 | 93 | 1017.8 |
| 20260902041537 | 70 | 134 | 0.0 | 2.0 | 0.00 | 0.03 | 0.00 | 91 | 1017.6 |
| 20260902040045 | 71 | 88 | 1.0 | 4.0 | 0.00 | 0.03 | 0.00 | 90 | 1017.5 |
| 20260902034537 | 71 | 90 | 0.0 | 3.0 | 0.00 | 0.03 | 0.03 | 90 | 1017.3 |
| 20260902033035 | 72 | 108 | 1.0 | 3.0 | 0.00 | 0.03 | 0.03 | 88 | 1017.2 |
| 20260902031540 | 72 | 105 | 0.0 | 5.0 | 0.00 | 0.03 | 0.03 | 88 | 1017.2 |
| 20260902030032 | 72 | 92 | 2.0 | 5.0 | 0.00 | 0.03 | 0.03 | 87 | 1017.3 |
| 20260902024537 | 73 | 143 | 1.0 | 7.0 | 0.00 | 0.03 | 0.03 | 85 | 1017.0 |
| 20260902023041 | 76 | 128 | 2.0 | 10.0 | 0.00 | 0.03 | 0.03 | 83 | 1016.6 |
| 20260902021534 | 79 | 99 | 3.0 | 8.0 | 0.00 | 0.03 | 0.03 | 83 | 1016.5 |
| 20260902020037 | 80 | 0 | 0.0 | 5.0 | 0.00 | 0.03 | 0.03 | 80 | 1015.9 |
| 20260902014531 | 81 | 355 | 3.0 | 8.0 | 0.00 | 0.03 | 0.03 | 78 | 1015.2 |
| 20260902013032 | 80 | 299 | 2.0 | 6.0 | 0.00 | 0.03 | 0.03 | 79 | 1015.6 |
| 20260902011535 | 81 | 315 | 3.0 | 6.0 | 0.00 | 0.03 | 0.03 | 79 | 1015.7 |
| 20260902010032 | 81 | 279 | 2.0 | 5.0 | 0.00 | 0.03 | 0.03 | 78 | 1015.5 |
| 20260902004533 | 81 | 333 | 2.0 | 6.0 | 0.00 | 0.03 | 0.03 | 78 | 1015.8 |
| 20260902003039 | 81 | 350 | 1.0 | 4.0 | 0.00 | 0.03 | 0.03 | 78 | 1015.6 |
| 20260902001545 | 81 | 5 | 1.0 | 6.0 | 0.00 | 0.03 | 0.03 | 77 | 1015.0 |
| 20260902000038 | 81 | 0 | 1.0 | 7.0 | 0.00 | 0.03 | 0.03 | 77 | 1014.6 |
| 20260901234534 | 81 | 276 | 2.0 | 4.0 | 0.00 | 0.03 | 0.03 | 77 | 1014.6 |
| 20260901233035 | 82 | 307 | 2.0 | 4.0 | 0.00 | 0.03 | 0.03 | 77 | 1015.0 |
| 20260901231535 | 82 | 311 | 2.0 | 4.0 | 0.00 | 0.03 | 0.03 | 77 | 1014.4 |
| 20260901230036 | 83 | 261 | 1.0 | 4.0 | 0.00 | 0.03 | 0.03 | 75 | 1014.6 |
| 20260901224534 | 85 | 280 | 4.0 | 10.0 | 0.00 | 0.03 | 0.03 | 72 | 1014.7 |
| 20260901223033 | 85 | 257 | 4.0 | 8.0 | 0.00 | 0.03 | 0.03 | 73 | 1014.6 |
| 20260901221544 | 85 | 291 | 4.0 | 11.0 | 0.00 | 0.03 | 0.03 | 73 | 1014.6 |
| 20260901220037 | 86 | 274 | 6.0 | 10.0 | 0.00 | 0.03 | 0.03 | 71 | 1014.6 |
| 20260901214535 | 86 | 360 | 5.0 | 11.0 | 0.00 | 0.03 | 0.03 | 70 | 1014.6 |
| 20260901213035 | 86 | 360 | 6.0 | 17.0 | 0.00 | 0.03 | 0.03 | 69 | 1014.5 |
| 20260901211534 | 87 | 325 | 8.0 | 13.0 | 0.00 | 0.03 | 0.03 | 66 | 1014.6 |
| 20260901210035 | 87 | 342 | 6.0 | 10.0 | 0.00 | 0.03 | 0.03 | 67 | 1014.6 |
| 20260901204533 | 87 | 5 | 4.0 | 14.0 | 0.00 | 0.03 | 0.03 | 66 | 1014.8 |
| 20260901203036 | 86 | 302 | 5.0 | 10.0 | 0.00 | 0.03 | 0.03 | 68 | 1014.8 |
| 20260901201535 | 87 | 317 | 3.0 | 12.0 | 0.00 | 0.03 | 0.03 | 67 | 1014.8 |
| 20260901200039 | 87 | 347 | 4.0 | 11.0 | 0.00 | 0.03 | 0.03 | 67 | 1014.8 |
| 20260901194533 | 87 | 285 | 5.0 | 15.0 | 0.00 | 0.03 | 0.03 | 66 | 1014.8 |
| 20260901193032 | 87 | 348 | 4.0 | 13.0 | 0.00 | 0.03 | 0.03 | 67 | 1014.9 |
| 20260901191551 | 86 | 342 | 7.0 | 15.0 | 0.00 | 0.03 | 0.03 | 66 | 1015.0 |
| 20260901190035 | 88 | 328 | 7.0 | 15.0 | 0.00 | 0.03 | 0.03 | 65 | 1015.1 |
| 20260901184540 | 88 | 286 | 9.0 | 16.0 | 0.00 | 0.03 | 0.03 | 64 | 1015.1 |
| 20260901183046 | 87 | 295 | 8.0 | 13.0 | 0.00 | 0.03 | 0.03 | 67 | 1015.2 |
| 20260901181535 | 86 | 328 | 6.0 | 17.0 | 0.00 | 0.03 | 0.03 | 67 | 1015.3 |
| 20260901180038 | 87 | 300 | 9.0 | 15.0 | 0.00 | 0.03 | 0.03 | 68 | 1015.2 |
| 20260901174536 | 87 | 281 | 7.0 | 16.0 | 0.00 | 0.03 | 0.03 | 67 | 1015.2 |
| 20260901173036 | 86 | 298 | 11.0 | 19.0 | 0.00 | 0.03 | 0.03 | 67 | 1015.3 |
| 20260901171539 | 86 | 313 | 10.0 | 21.0 | 0.00 | 0.03 | 0.03 | 70 | 1015.2 |
| 20260901170037 | 85 | 292 | 10.0 | 18.0 | 0.00 | 0.03 | 0.03 | 70 | 1015.2 |
| 20260901164540 | 85 | 281 | 8.0 | 15.0 | 0.00 | 0.03 | 0.03 | 69 | 1015.2 |
| 20260901163033 | 84 | 292 | 8.0 | 16.0 | 0.00 | 0.03 | 0.03 | 73 | 1015.4 |
| 20260901161549 | 84 | 5 | 5.0 | 16.0 | 0.00 | 0.03 | 0.03 | 73 | 1015.4 |
| 20260901160038 | 83 | 269 | 9.0 | 17.0 | 0.00 | 0.03 | 0.03 | 73 | 1015.5 |
| 20260901154547 | 83 | 292 | 9.0 | 16.0 | 0.00 | 0.03 | 0.03 | 75 | 1015.7 |
| 20260901153043 | 82 | 279 | 9.0 | 16.0 | 0.00 | 0.03 | 0.03 | 77 | 1015.7 |
| 20260901151535 | 80 | 309 | 7.0 | 15.0 | 0.00 | 0.03 | 0.03 | 79 | 1015.9 |
| 20260901150040 | 80 | 328 | 6.0 | 11.0 | 0.00 | 0.03 | 0.03 | 78 | 1015.9 |
| 20260901144540 | 80 | 273 | 5.0 | 13.0 | 0.00 | 0.04 | 0.03 | 79 | 1016.2 |
| 20260901143045 | 79 | 310 | 6.0 | 13.0 | 0.00 | 0.04 | 0.03 | 79 | 1016.2 |
| 20260901141546 | 79 | 319 | 6.0 | 12.0 | 0.00 | 0.04 | 0.03 | 78 | 1016.1 |
| 20260901140035 | 78 | 304 | 7.0 | 15.0 | 0.00 | 0.04 | 0.03 | 79 | 1016.0 |
| 20260901134535 | 77 | 271 | 7.0 | 13.0 | 0.00 | 0.11 | 0.03 | 80 | 1016.0 |
| 20260901133035 | 76 | 305 | 3.0 | 7.0 | 0.00 | 0.11 | 0.03 | 84 | 1016.3 |
| 20260901131535 | 74 | 283 | 3.0 | 8.0 | 0.00 | 0.11 | 0.03 | 87 | 1016.4 |
| 20260901130035 | 73 | 287 | 2.0 | 4.0 | 0.00 | 0.11 | 0.03 | 90 | 1016.6 |
| 20260901124536 | 72 | 355 | 1.0 | 2.0 | 0.00 | 0.17 | 0.03 | 92 | 1016.7 |
| 20260901123037 | 72 | 317 | 1.0 | 3.0 | 0.00 | 0.17 | 0.03 | 92 | 1017.0 |
| 20260901121537 | 72 | 20 | 0.0 | 3.0 | 0.00 | 0.17 | 0.03 | 93 | 1017.1 |
| 20260901120035 | 72 | 0 | 0.0 | 3.0 | 0.00 | 0.17 | 0.03 | 93 | 1016.8 |
| 20260901114538 | 71 | 0 | 0.0 | 2.0 | 0.00 | 0.17 | 0.03 | 96 | 1016.8 |
| 20260901113036 | 70 | 0 | 0.0 | 1.0 | 0.00 | 0.17 | 0.03 | 97 | 1016.8 |
| 20260901111535 | 69 | 0 | 0.0 | 0.0 | 0.00 | 0.17 | 0.03 | 97 | 1016.7 |
| 20260901110035 | 69 | 0 | 0.0 | 0.0 | 0.00 | 0.17 | 0.03 | 97 | 1016.8 |
| 20260901104532 | 68 | 0 | 0.0 | 2.0 | 0.00 | 0.17 | 0.03 | 97 | 1017.1 |
| 20260901103036 | 68 | 0 | 0.0 | 3.0 | 0.01 | 0.17 | 0.03 | 97 | 1017.0 |
| 20260901101534 | 69 | 0 | 0.0 | 2.0 | 0.03 | 0.17 | 0.03 | 97 | 1017.0 |
| 20260901100034 | 69 | 90 | 1.0 | 3.0 | 0.03 | 0.17 | 0.03 | 97 | 1016.6 |
| 20260901094539 | 68 | 0 | 0.0 | 2.0 | 0.03 | 0.17 | 0.03 | 97 | 1016.7 |